TimeEDT,TemperatureF,Dew PointF,Humidity,Sea Level PressureIn,VisibilityMPH,Wind Direction,Wind SpeedMPH,Gust SpeedMPH,PrecipitationIn,Events,Conditions,WindDirDegrees,DateUTC
12:15 AM,44.6,44.6,100,29.95,10.0,West,3.5,-,N/A,,Clear,260,2012-10-01 04:15:00
12:35 AM,42.8,42.8,100,29.95,10.0,West,4.6,-,N/A,,Clear,260,2012-10-01 04:35:00
12:55 AM,42.8,42.8,100,29.94,10.0,WSW,4.6,-,N/A,,Clear,250,2012-10-01 04:55:00
1:15 AM,42.8,41.0,93,29.93,10.0,WSW,3.5,-,N/A,,Clear,250,2012-10-01 05:15:00
1:35 AM,42.8,41.0,93,29.93,10.0,WSW,3.5,-,N/A,,Clear,250,2012-10-01 05:35:00
1:55 AM,42.8,42.8,100,29.93,10.0,Calm,Calm,-,N/A,,Clear,0,2012-10-01 05:55:00
2:15 AM,42.8,42.8,100,29.93,10.0,Calm,Calm,-,N/A,,Clear,0,2012-10-01 06:15:00
2:35 AM,42.8,41.0,93,29.92,10.0,Calm,Calm,-,N/A,,Clear,0,2012-10-01 06:35:00
2:55 AM,42.8,42.8,100,29.91,10.0,Calm,Calm,-,N/A,,Clear,0,2012-10-01 06:55:00
3:15 AM,42.8,42.8,100,29.91,10.0,Calm,Calm,-,N/A,,Clear,0,2012-10-01 07:15:00
3:35 AM,39.2,39.2,100,29.90,10.0,Calm,Calm,-,N/A,,Clear,0,2012-10-01 07:35:00
3:55 AM,42.8,42.8,100,29.91,10.0,West,6.9,-,N/A,,Clear,260,2012-10-01 07:55:00
4:15 AM,39.2,37.4,93,29.91,5.0,West,4.6,-,N/A,,Clear,260,2012-10-01 08:15:00
4:35 AM,39.2,39.2,100,29.91,10.0,West,3.5,-,N/A,,Clear,260,2012-10-01 08:35:00
4:55 AM,41.0,41.0,100,29.91,10.0,West,3.5,-,N/A,,Clear,270,2012-10-01 08:55:00
5:15 AM,41.0,41.0,100,29.90,10.0,Calm,Calm,-,N/A,,Clear,0,2012-10-01 09:15:00
5:35 AM,42.8,42.8,100,29.90,10.0,West,3.5,-,N/A,,Clear,270,2012-10-01 09:35:00
5:55 AM,42.8,42.8,100,29.90,10.0,West,3.5,-,N/A,,Clear,260,2012-10-01 09:55:00
9:35 AM,46.4,44.6,93,29.92,10.0,Calm,Calm,-,N/A,,Clear,0,2012-10-01 13:35:00
9:55 AM,48.2,46.4,93,29.92,10.0,WSW,3.5,-,N/A,,Clear,240,2012-10-01 13:55:00
10:15 AM,50.0,46.4,87,29.91,10.0,WSW,3.5,-,N/A,,Clear,240,2012-10-01 14:15:00
10:35 AM,51.8,46.4,82,29.91,10.0,WSW,3.5,-,N/A,,Clear,250,2012-10-01 14:35:00
11:55 AM,60.8,46.4,59,29.89,10.0,SSW,5.8,-,N/A,,Clear,210,2012-10-01 15:55:00
12:15 PM,60.8,46.4,59,29.89,10.0,WSW,8.1,-,N/A,,Clear,240,2012-10-01 16:15:00
12:35 PM,62.6,44.6,52,29.88,10.0,WSW,8.1,-,N/A,,Clear,240,2012-10-01 16:35:00
12:55 PM,62.6,46.4,55,29.88,10.0,WSW,4.6,-,N/A,,Clear,250,2012-10-01 16:55:00
1:15 PM,62.6,46.4,55,29.88,10.0,South,6.9,-,N/A,,Clear,190,2012-10-01 17:15:00
1:35 PM,64.4,46.4,52,29.87,10.0,SW,10.4,-,N/A,,Clear,230,2012-10-01 17:35:00
1:55 PM,64.4,46.4,52,29.87,10.0,WSW,8.1,-,N/A,,Partly Cloudy,250,2012-10-01 17:55:00
2:15 PM,64.4,46.4,52,29.87,10.0,SW,9.2,-,N/A,,Clear,220,2012-10-01 18:15:00
2:35 PM,64.4,44.6,49,29.86,10.0,SW,6.9,-,N/A,,Clear,230,2012-10-01 18:35:00
2:55 PM,64.4,46.4,52,29.86,10.0,SSW,5.8,16.1,N/A,,Clear,210,2012-10-01 18:55:00
3:35 PM,64.4,46.4,52,29.84,10.0,SW,8.1,-,N/A,,Clear,220,2012-10-01 19:35:00
3:55 PM,64.4,48.2,56,29.84,10.0,SSW,8.1,-,N/A,,Clear,210,2012-10-01 19:55:00
4:15 PM,64.4,48.2,56,29.84,10.0,SSW,5.8,-,N/A,,Clear,200,2012-10-01 20:15:00
4:35 PM,62.6,48.2,59,29.83,10.0,SSW,8.1,-,N/A,,Clear,200,2012-10-01 20:35:00
4:55 PM,64.4,46.4,52,29.83,10.0,WSW,4.6,-,N/A,,Clear,250,2012-10-01 20:55:00
5:15 PM,62.6,48.2,59,29.84,10.0,SW,8.1,-,N/A,,Clear,230,2012-10-01 21:15:00
5:35 PM,62.6,48.2,59,29.84,10.0,WSW,5.8,-,N/A,,Clear,240,2012-10-01 21:35:00
5:55 PM,62.6,48.2,59,29.84,10.0,SW,3.5,-,N/A,,Clear,220,2012-10-01 21:55:00
6:15 PM,62.6,48.2,59,29.84,10.0,WSW,6.9,-,N/A,,Clear,240,2012-10-01 22:15:00
6:35 PM,60.8,50.0,68,29.85,10.0,SSW,4.6,-,N/A,,Clear,200,2012-10-01 22:35:00
6:55 PM,59.0,50.0,72,29.84,10.0,SSW,3.5,-,N/A,,Clear,210,2012-10-01 22:55:00
7:15 PM,57.2,50.0,77,29.85,10.0,SSW,4.6,-,N/A,,Clear,210,2012-10-01 23:15:00
7:35 PM,55.4,50.0,82,29.84,10.0,SW,3.5,-,N/A,,Clear,220,2012-10-01 23:35:00
7:55 PM,55.4,50.0,82,29.84,10.0,SW,4.6,-,N/A,,Clear,220,2012-10-01 23:55:00
8:15 PM,55.4,50.0,82,29.85,10.0,SSW,4.6,-,N/A,,Clear,210,2012-10-02 00:15:00
8:35 PM,53.6,50.0,88,29.85,10.0,South,3.5,-,N/A,,Clear,190,2012-10-02 00:35:00
8:55 PM,53.6,50.0,88,29.86,10.0,South,4.6,-,N/A,,Clear,180,2012-10-02 00:55:00
9:15 PM,53.6,50.0,88,29.86,10.0,SSW,3.5,-,N/A,,Clear,200,2012-10-02 01:15:00
9:35 PM,53.6,51.8,94,29.86,10.0,Calm,Calm,-,N/A,,Clear,0,2012-10-02 01:35:00
9:55 PM,53.6,51.8,94,29.86,10.0,SSW,4.6,-,N/A,,Clear,200,2012-10-02 01:55:00
10:15 PM,51.8,51.8,100,29.87,10.0,SSW,3.5,-,N/A,,Clear,200,2012-10-02 02:15:00
10:35 PM,51.8,51.8,100,29.86,10.0,South,4.6,-,N/A,,Clear,180,2012-10-02 02:35:00
10:55 PM,51.8,50.0,94,29.86,10.0,South,4.6,-,N/A,,Clear,180,2012-10-02 02:55:00
11:15 PM,51.8,50.0,94,29.87,10.0,Calm,Calm,-,N/A,,Clear,0,2012-10-02 03:15:00
11:35 PM,50.0,50.0,100,29.86,10.0,Calm,Calm,-,N/A,,Clear,0,2012-10-02 03:35:00